STARLINK-1316 (45415 NORAD) Tracking and Keplerian Element Data

This shows tracking and keplerian element data for the satellite.

Feedback or suggestion? Click here.




ElementValue
Catalog45415
NameSTARLINK-1316
Epoch Orbit1100
Epoch Day146.25001157
Epoch Year2020
RAAN282.6006
Inclination52.9995
Eccentricity0.0001099
Argument of Perigee54.2365
Mean Anonmoly201.9632
Mean Motion15.62679322
Decay Rate0.00063235
L11 45415U 20019BH 20146.25001157 .00063235 00000-0 69304-3 0 9999
L22 45415 52.9995 282.6006 0001099 54.2365 201.9632 15.62679322 11006

Live tracking and technical data element details for STARLINK-1316 (NORAD 45415). STARLINK-1316 can be tracked NOW for your location showing map with azimuth and elevation plus other details from your city location.

Track the satellite on the map from your city or location and see movement details for azimuth, elevation, latitude, longitude, range, height, and movement on the map or in text.







IsCatalogInMostPopularTable: catalog: 45415, numindb: 23
Update: records affected: 1



GetName: 45415 STARLINK-1316

Hit Count: updated at: Mon, 25 May 2020 08:36:01 GMT